Theta_e
310 310 310 310 311 311 311 311 311 311 311 312 311 311 310 311 311 311 311 311 311 310 310 310 310 310 310 310 311 311 311 312 312 313 314 314 315 314 313 313 312 313 313 312 312 313 313 313 315 315 315 315 315 316 315 317 315 318 329 330 323 323 323 319 318 314 317 320 312 311 313 314 315 313 313 314 313 314 314 314 315 315 315 315 315 315 315 315
310 310 310 310 310 311 311 311 311 311 311 312 311 310 310 311 311 311 310 310 310 310 310 310 310 310 310 310 310 311 311 312 312 313 314 315 315 314 313 314 314 315 314 314 313 313 313 313 315 316 315 315 315 315 315 316 314 319 326 324 325 328 319 313 314 311 313 316 312 312 312 313 315 313 313 314 314 313 314 314 314 315 315 315 315 315 314 315
310 310 310 310 310 310 311 311 311 311 312 311 310 310 310 310 310 310 310 310 310 310 310 310 310 310 310 310 310 311 311 312 313 313 314 314 314 314 314 315 315 316 315 315 313 313 314 313 316 316 315 315 315 315 315 315 314 313 318 324 327 321 312 310 312 311 313 313 312 312 312 313 314 313 314 314 313 312 314 315 314 314 315 315 315 315 315 315
310 310 310 310 310 310 311 311 311 311 312 311 310 310 310 310 310 310 310 310 310 310 310 310 310 310 310 310 311 311 311 313 314 314 314 313 314 314 316 317 317 317 317 315 313 313 314 314 316 315 316 316 315 315 314 314 314 312 317 323 317 310 312 313 312 312 312 313 313 312 312 313 313 313 314 313 314 314 314 314 315 315 315 315 315 315 315 315
310 310 310 310 310 310 311 311 311 311 311 311 310 310 310 309 309 309 309 309 309 310 310 310 310 310 310 310 311 311 313 316 316 314 313 313 314 315 317 317 316 317 317 317 315 314 315 315 316 316 317 316 315 317 314 312 313 313 313 313 309 308 314 313 311 313 312 313 313 312 313 313 313 313 313 313 315 316 315 315 315 315 315 315 315 315 315 315
310 310 310 310 310 310 310 311 311 311 311 311 310 310 310 309 308 308 309 309 310 310 310 310 310 310 310 310 310 311 314 317 315 313 313 313 313 314 316 316 316 316 316 318 316 315 316 316 317 316 315 314 314 316 315 312 313 316 313 309 309 310 312 312 312 313 312 313 312 312 313 313 313 313 313 313 314 316 315 315 315 314 315 314 315 314 315 315
310 310 310 310 310 310 310 311 311 311 311 310 310 310 309 308 308 308 308 308 309 310 310 310 310 310 310 310 310 311 312 314 313 313 314 313 313 313 314 315 315 315 316 317 317 316 316 316 317 315 315 314 313 313 314 313 313 318 317 310 310 311 312 313 312 313 313 313 313 313 314 313 314 314 313 313 315 316 315 315 315 315 315 314 315 315 315 315
310 310 310 310 310 310 310 311 311 311 311 310 310 309 309 307 307 307 308 308 309 310 309 309 310 310 310 310 310 311 311 313 314 313 314 313 313 313 313 313 314 315 315 316 317 317 316 316 317 315 315 314 314 313 313 315 314 317 317 311 311 312 312 313 313 313 313 313 313 313 314 313 314 313 312 314 316 315 315 315 315 315 314 315 315 316 315 314
310 310 310 310 310 310 311 311 311 311 310 310 309 309 308 307 306 307 308 308 309 309 309 310 310 310 310 310 310 312 311 313 314 313 313 313 313 312 312 313 314 315 315 316 317 317 317 316 316 317 315 313 313 313 312 316 316 314 314 313 312 313 313 313 313 313 313 313 314 314 314 313 313 313 313 316 316 315 315 315 315 315 315 315 315 315 316 314
309 309 309 309 310 310 311 311 310 310 310 309 308 308 307 307 306 307 308 309 309 309 309 309 310 310 310 310 310 312 311 312 314 314 313 313 313 312 313 315 316 316 316 316 317 317 317 316 316 317 316 314 313 312 313 316 315 313 313 313 313 314 314 314 314 313 313 313 313 315 314 312 312 313 315 317 317 316 315 315 315 315 315 315 316 315 315 315
309 309 309 310 310 310 310 310 310 310 309 308 307 307 307 306 307 307 308 308 308 309 309 309 310 310 310 311 311 311 313 314 314 314 313 313 313 312 314 316 316 316 316 316 317 317 316 316 317 316 316 315 314 313 312 313 314 313 314 315 314 314 315 314 314 313 314 314 313 314 313 311 311 313 316 316 316 317 316 316 315 315 315 315 315 315 315 315
309 309 309 309 309 309 309 309 308 308 307 307 306 306 306 306 307 307 308 308 308 308 309 309 309 310 310 310 310 312 315 316 316 314 313 313 313 313 315 316 316 316 316 316 317 317 316 317 316 317 317 314 314 314 313 313 314 314 315 317 318 319 318 313 312 313 313 315 313 313 314 315 314 314 316 315 315 316 315 316 316 315 315 314 315 315 315 315
308 308 308 307 307 307 307 306 306 306 306 306 306 306 306 307 307 307 308 308 308 309 309 309 309 310 310 310 312 312 313 314 316 315 314 314 313 314 316 316 316 316 316 316 316 317 316 317 316 316 315 314 315 313 314 313 313 316 313 316 323 324 321 313 310 312 312 314 313 313 318 323 320 315 315 315 314 315 315 315 316 315 315 314 315 314 315 314
306 306 306 306 306 305 305 305 305 305 306 306 306 306 307 307 307 307 308 308 308 308 309 309 309 309 309 311 313 312 311 312 315 316 315 315 314 315 316 316 316 316 316 316 316 316 316 317 316 316 314 315 314 313 319 317 316 320 312 318 325 319 323 318 309 311 314 313 312 313 318 321 321 316 314 314 314 314 314 315 315 315 315 314 315 314 314 314
305 306 305 305 305 305 305 305 306 306 306 306 306 307 307 307 307 307 307 308 308 308 308 309 309 310 310 310 312 312 311 310 313 316 316 315 315 315 316 317 316 316 316 316 316 316 316 317 316 316 313 314 314 317 326 324 323 324 314 322 324 316 327 326 310 309 314 313 310 314 319 319 318 315 314 314 313 314 313 315 315 315 315 315 315 315 314 314
307 307 307 306 306 306 306 306 306 306 306 306 306 306 306 307 307 307 307 307 308 308 308 309 309 310 310 310 311 312 312 311 311 314 317 317 315 315 316 317 316 316 316 316 316 316 316 316 315 315 313 314 320 326 330 325 326 325 315 320 325 319 325 323 311 308 309 311 311 313 318 322 319 314 313 313 313 313 313 314 315 314 315 315 314 314 314 314
309 309 309 309 308 308 308 307 308 307 307 307 307 307 307 307 307 307 307 307 308 308 308 309 310 310 311 311 313 313 312 312 311 312 316 317 316 316 316 316 316 316 316 316 316 316 316 315 314 314 314 315 319 326 327 322 325 325 317 319 324 322 320 320 319 311 307 311 313 313 315 318 317 313 312 313 312 313 312 314 315 315 315 314 314 314 314 315
310 310 310 310 310 310 310 309 309 309 309 309 309 309 308 308 308 307 307 307 308 308 308 310 311 312 312 311 313 314 314 313 312 312 314 316 317 316 316 317 316 316 316 316 316 316 315 314 315 318 319 318 318 322 324 323 327 328 324 323 323 320 317 320 324 314 309 312 314 315 315 314 314 312 312 312 312 312 313 314 314 314 314 314 314 314 315 315
310 310 310 310 310 310 310 310 310 309 310 309 309 309 309 309 309 308 308 308 309 310 311 311 311 312 314 311 311 314 314 313 313 313 313 315 316 316 317 316 316 316 315 316 316 314 315 316 318 320 321 321 320 319 320 321 324 328 331 332 328 323 319 322 326 315 309 313 315 315 315 314 314 313 312 312 311 311 312 313 313 314 314 314 315 315 315 315
310 310 310 310 310 310 310 309 309 309 309 309 309 308 309 309 309 309 309 308 309 310 312 313 311 311 314 313 311 312 314 314 314 314 313 315 316 316 317 315 316 316 315 319 319 312 315 321 322 324 323 321 319 318 319 320 321 323 327 329 326 323 321 324 325 315 307 313 319 317 314 314 313 313 311 310 310 309 310 311 312 313 313 314 315 315 316 316
311 310 310 310 310 310 309 309 309 309 308 308 308 308 309 309 310 310 309 309 309 309 310 312 312 311 312 313 313 313 313 314 315 315 315 315 316 316 316 316 317 318 315 314 315 313 317 323 324 325 319 315 318 319 319 320 321 323 323 322 322 322 322 322 321 315 309 313 321 319 316 314 313 313 311 309 309 308 310 310 311 314 315 315 315 315 317 316
311 311 310 310 310 310 309 309 309 308 308 308 308 308 308 308 310 311 311 311 311 310 309 309 311 311 311 312 313 313 314 315 316 316 316 315 316 316 315 316 319 321 315 312 316 318 319 323 323 318 311 312 317 317 318 319 319 324 323 319 322 322 321 321 318 315 312 313 321 322 317 315 314 313 311 309 309 310 312 313 314 316 315 315 317 317 317 316
311 311 311 310 310 310 309 309 309 308 308 308 308 308 308 308 309 310 311 312 312 311 310 310 310 310 311 311 312 313 313 315 316 316 316 315 316 316 314 316 321 322 317 317 322 322 322 325 320 311 310 317 320 316 318 319 318 322 323 320 322 321 321 322 319 317 314 313 318 321 317 315 315 315 314 312 311 312 313 314 315 316 315 316 317 317 316 316
312 311 311 311 310 310 310 309 308 308 308 308 308 307 308 309 309 309 309 310 311 311 310 310 311 310 310 311 311 313 313 314 315 315 316 315 315 316 314 315 319 320 318 318 320 320 322 320 312 308 312 321 321 317 319 319 319 322 321 319 320 322 322 321 320 319 318 316 315 319 320 320 321 319 318 315 311 312 313 313 314 314 316 317 316 315 315 315
313 312 311 311 310 310 310 309 309 309 308 308 308 307 308 308 308 310 310 310 312 312 310 310 311 311 310 310 311 313 313 314 314 314 315 315 315 315 314 313 317 320 319 318 317 318 321 313 310 313 315 319 322 320 321 322 322 324 322 319 319 322 322 320 320 319 323 325 317 315 321 329 329 323 322 321 317 317 314 310 312 316 318 316 315 317 316 315
315 314 312 311 310 310 310 310 309 309 308 308 308 307 307 308 309 309 311 314 314 312 311 311 312 312 311 311 312 312 313 314 314 315 315 315 315 314 315 314 313 317 317 316 316 317 317 311 313 321 318 318 319 319 321 320 319 323 322 319 317 317 318 319 319 319 326 328 316 315 324 327 324 321 324 327 327 328 320 312 312 315 318 317 316 318 316 315
316 315 314 313 311 310 309 310 310 309 309 309 308 308 308 309 310 308 310 315 314 311 314 313 311 313 312 312 312 311 313 315 314 315 315 315 315 314 317 316 313 315 313 314 317 316 316 314 315 321 321 320 319 320 321 316 320 326 319 316 318 317 319 319 318 320 324 323 317 319 325 324 322 320 321 323 325 326 323 319 316 314 317 317 316 317 316 316
318 317 316 315 314 312 310 310 311 310 309 310 309 308 310 310 310 311 312 314 312 312 314 313 311 312 312 312 313 311 312 313 314 316 315 315 315 314 317 317 316 318 312 314 320 314 314 320 318 318 321 320 320 322 319 315 322 324 313 313 318 318 320 320 320 322 320 319 321 321 321 322 323 320 319 320 320 322 323 324 320 315 316 315 315 316 316 317
318 318 317 316 316 315 312 310 310 310 310 311 309 308 310 310 309 312 314 313 312 313 313 313 313 312 312 312 312 311 311 312 314 316 315 314 315 314 316 314 313 316 312 312 320 314 312 316 315 316 321 321 320 316 313 316 320 315 308 312 316 317 320 321 323 324 322 322 324 323 321 322 323 321 321 320 320 323 325 324 319 314 314 314 315 317 316 317
320 319 318 317 316 315 314 311 309 310 311 310 308 309 309 310 310 310 311 312 313 314 311 311 314 312 313 313 312 312 311 312 314 314 314 314 315 314 314 313 312 318 317 314 318 316 310 310 310 314 318 316 315 310 307 312 313 309 314 320 320 321 322 322 322 321 324 327 326 324 321 322 323 322 323 322 321 324 322 322 322 316 313 315 316 316 316 315
320 321 319 318 318 317 315 312 309 310 311 309 309 310 309 313 316 311 310 310 311 314 312 312 314 313 313 314 314 314 313 312 313 314 315 314 315 314 314 315 315 321 322 318 319 316 312 314 313 313 312 310 314 313 309 307 307 313 326 326 323 325 323 323 324 323 327 328 322 319 317 319 323 321 322 322 321 322 320 322 329 322 314 316 316 315 315 315
318 320 320 319 319 319 317 314 310 310 310 309 311 311 310 314 316 313 312 311 311 315 316 316 314 314 314 314 315 315 315 315 313 314 317 316 316 316 316 317 318 320 321 319 319 318 317 319 315 311 311 312 319 321 314 311 311 317 326 324 324 328 324 324 326 323 325 322 315 315 317 318 320 320 321 321 320 322 317 315 320 317 314 317 316 315 315 315
316 318 320 320 319 319 319 316 311 309 309 310 312 313 314 315 312 311 313 312 313 314 315 318 316 314 315 315 315 314 315 316 314 314 316 316 316 316 316 318 316 318 322 319 316 318 319 317 313 314 314 313 319 322 319 318 316 317 322 324 326 327 327 331 328 320 321 320 312 311 317 320 321 321 322 320 318 319 315 312 315 314 315 317 316 315 314 314
317 318 319 319 319 319 320 317 311 309 310 312 312 313 315 313 310 311 311 311 316 316 316 317 315 314 314 316 316 314 314 315 314 315 316 315 318 318 318 318 314 318 325 319 316 319 319 317 316 317 316 315 317 317 320 322 317 316 320 322 325 327 329 332 330 326 325 323 315 311 317 324 324 325 323 315 312 313 313 315 316 315 316 316 315 315 314 314
318 318 318 319 319 319 319 316 311 310 311 313 314 311 311 310 309 311 310 312 320 320 317 315 315 316 316 316 317 314 314 315 314 315 317 316 318 317 317 317 314 318 322 317 318 318 318 320 319 314 312 314 316 314 317 320 318 316 317 321 323 325 326 323 320 320 321 322 320 316 319 322 321 322 318 311 310 312 312 312 312 314 315 314 313 314 313 313
318 318 318 319 318 318 319 315 310 310 312 315 314 311 310 310 310 312 311 314 321 320 316 316 318 319 317 316 317 314 313 316 315 316 317 316 318 317 317 317 314 315 315 314 320 320 319 320 316 312 312 313 312 312 313 316 319 317 317 322 320 317 324 324 316 312 314 320 322 319 321 320 319 321 317 313 315 314 312 310 309 311 311 310 311 312 312 313
318 318 318 318 318 318 318 315 311 311 313 315 314 311 310 310 312 316 314 314 316 317 317 318 318 320 319 317 319 317 315 317 316 316 318 316 318 318 316 316 315 314 314 314 320 321 320 321 315 312 316 312 308 311 310 309 315 320 321 321 316 313 321 326 322 320 320 323 323 320 321 320 320 322 320 319 320 319 318 314 310 309 309 309 311 313 313 313
318 318 318 318 318 319 318 315 312 311 314 316 315 314 314 312 311 313 313 313 314 316 318 317 315 318 319 318 318 317 315 317 316 316 318 316 317 318 316 317 316 313 313 313 317 319 318 319 317 311 314 312 308 313 315 310 310 316 319 317 317 322 324 322 323 326 326 325 325 323 320 319 319 320 320 320 322 324 322 317 315 313 310 310 313 314 314 313
317 317 316 317 317 318 318 316 313 312 315 316 315 315 315 314 311 311 312 313 314 316 316 315 314 316 319 318 318 317 315 316 316 316 318 317 317 316 314 316 316 313 312 312 315 319 317 317 319 311 309 312 312 315 320 317 311 311 314 313 317 323 323 322 323 324 326 327 327 325 322 320 320 322 324 321 322 324 321 320 323 317 311 312 313 314 314 313
315 314 314 315 316 317 317 315 313 313 315 315 314 313 313 313 311 310 312 312 314 315 314 315 316 318 318 316 317 318 316 315 315 316 317 316 316 317 314 315 318 314 312 312 314 319 318 315 318 314 309 313 317 318 318 318 316 314 317 317 317 318 318 321 321 319 324 329 328 327 324 322 322 324 325 322 323 325 323 325 326 316 310 312 312 312 314 314
314 313 313 314 315 316 316 314 314 313 313 313 313 312 311 312 312 312 311 311 313 314 313 316 317 316 318 316 316 318 316 316 316 315 317 316 316 318 315 314 316 315 313 314 315 317 317 317 319 317 314 315 319 317 313 316 317 316 318 318 317 317 318 322 320 318 322 325 324 324 324 322 322 321 323 325 327 324 319 319 320 313 311 313 312 312 313 313
313 312 313 313 314 315 314 314 314 312 311 312 312 312 312 312 313 313 312 311 313 313 313 317 317 315 317 318 317 318 317 317 316 315 317 317 315 317 316 312 313 314 314 316 317 315 316 321 322 320 317 316 315 310 304 309 315 315 317 319 318 317 318 322 322 320 321 320 318 319 321 322 321 322 326 325 320 315 310 310 312 312 312 312 311 312 312 313
312 312 313 313 314 315 314 314 313 311 310 310 311 312 312 312 312 313 313 313 313 313 313 315 316 315 316 318 317 317 317 318 316 316 318 318 315 315 314 313 313 313 315 318 320 316 315 320 322 321 321 317 313 309 304 307 313 315 317 318 318 317 318 321 321 320 322 321 319 319 321 321 319 319 316 309 306 308 308 309 310 310 312 312 310 311 312 313
312 312 313 313 314 315 314 313 312 311 310 309 310 311 312 312 312 313 314 314 313 313 313 314 315 314 315 318 318 317 317 317 317 316 316 318 317 313 312 313 314 314 315 317 319 316 317 321 320 321 323 321 317 315 312 311 314 317 319 317 315 317 318 319 320 319 321 322 321 321 323 321 318 315 310 307 309 310 308 308 309 310 314 315 311 311 312 312
312 311 312 313 314 314 314 313 312 310 310 309 309 310 311 312 313 312 314 313 313 314 314 314 314 314 315 317 317 316 317 316 317 317 316 318 317 312 310 313 314 313 315 315 315 314 318 321 319 318 321 321 320 321 320 316 314 317 319 316 314 317 318 318 319 319 320 321 320 320 322 321 318 315 314 314 316 316 311 309 311 312 314 314 312 311 312 312
311 311 311 312 313 313 314 313 311 310 309 309 309 310 310 311 312 312 313 314 313 314 315 315 314 314 316 317 316 317 317 316 317 318 317 319 319 313 310 312 314 313 314 315 313 316 321 321 318 318 320 319 319 320 320 319 317 317 318 317 315 316 316 318 319 320 320 321 320 319 319 321 320 318 318 317 318 322 319 312 311 314 314 313 313 312 312 313
309 310 310 311 313 312 312 312 312 311 310 309 309 310 309 310 311 311 313 314 314 314 314 315 315 315 316 316 315 316 316 316 317 318 317 318 318 314 310 310 312 313 314 314 313 318 323 322 318 319 319 318 320 320 319 320 320 318 318 317 316 315 315 317 319 319 320 321 321 320 318 320 320 318 321 323 322 324 320 312 311 315 314 314 313 312 312 313
307 309 309 310 312 312 312 312 312 312 311 309 309 309 309 310 311 312 312 312 313 313 314 315 316 317 317 316 316 316 316 317 317 316 317 317 316 315 313 310 310 311 313 314 313 317 322 321 319 321 320 318 320 320 320 321 320 319 317 317 316 315 315 316 318 318 319 320 321 320 320 320 319 317 319 322 319 319 318 314 313 314 314 315 314 312 313 314
306 308 308 309 310 310 311 311 311 311 311 310 309 308 309 309 310 310 311 312 312 312 314 315 315 316 316 316 317 317 317 317 317 316 316 316 317 317 317 315 313 310 311 315 314 314 318 320 319 320 320 319 319 319 319 319 318 318 318 317 316 315 315 316 317 317 318 319 319 320 320 320 318 318 319 318 315 315 314 314 313 314 315 315 314 312 313 314
306 307 307 308 308 307 308 310 310 310 311 310 309 309 308 309 310 310 310 312 312 312 313 314 314 315 316 316 317 318 317 317 318 317 317 316 317 316 317 318 317 312 310 314 316 314 315 320 321 319 319 320 319 319 319 318 318 318 318 317 316 316 315 315 316 317 317 318 318 318 320 319 317 318 318 315 314 315 314 313 313 315 316 315 312 312 313 314
305 306 307 307 307 307 307 308 309 310 311 310 309 309 309 309 309 310 310 310 311 312 313 313 314 314 314 315 315 316 316 316 317 317 316 316 316 316 315 314 316 316 312 312 315 315 314 318 321 319 319 320 319 319 319 317 316 316 317 317 316 315 315 315 315 316 317 318 318 318 319 319 317 318 317 314 313 314 313 313 314 314 316 315 313 313 315 316
305 305 306 306 307 308 308 308 309 310 310 309 309 309 309 309 308 309 310 310 310 311 312 312 313 313 314 314 314 315 315 315 316 316 315 316 315 315 315 312 313 317 316 312 314 315 315 316 318 317 319 320 319 319 319 317 316 317 318 317 316 315 315 316 315 316 316 316 318 318 318 318 319 320 318 317 317 315 313 314 315 314 315 315 315 315 316 316
Wind_Speed
19 18 17 16 15 15 14 13 12 12 11 11 11 11 11 12 12 13 13 12 11 10 8 7 5 4 4 4 5 4 3 2 3 2 0 1 4 3 3 2 2 2 1 1 2 2 2 2 2 3 3 5 6 7 8 7 6 4 3 4 2 3 4 6 8 7 4 2 7 11 12 8 4 8 8 5 7 7 9 13 13 12 13 13 11 10 8 9
20 19 18 17 16 15 14 13 13 12 11 11 11 11 12 12 12 12 13 12 11 10 8 7 5 4 4 4 5 4 3 2 3 2 0 2 4 4 4 4 4 4 3 2 2 2 1 2 3 3 4 5 6 5 6 5 5 4 3 3 3 5 4 6 10 10 3 2 10 12 11 9 6 10 10 4 4 7 7 10 13 14 14 15 14 13 11 10
21 20 18 17 16 15 14 14 13 12 11 11 11 12 12 12 12 12 12 12 12 11 8 7 5 4 3 4 4 3 2 3 2 0 1 5 7 7 7 6 6 5 4 3 2 2 2 4 4 4 6 7 6 5 5 5 3 2 4 2 4 6 3 5 12 11 4 3 10 12 10 9 6 10 10 5 4 5 8 11 13 16 16 15 15 15 13 12
21 20 19 17 16 15 15 14 13 12 12 11 11 12 13 12 12 13 12 12 12 11 9 7 5 4 3 3 3 2 2 2 1 2 4 9 10 10 8 7 7 6 5 4 4 4 4 5 6 6 7 6 5 5 5 6 2 1 4 2 4 5 2 4 9 8 4 3 9 12 8 7 7 9 10 7 3 4 12 16 16 17 15 13 15 15 14 14
21 20 19 17 16 15 15 15 14 13 12 11 12 13 13 12 12 13 12 13 13 11 9 7 6 4 3 3 2 2 1 2 2 5 9 12 12 9 8 7 7 6 5 5 4 5 6 6 6 6 6 4 4 4 4 6 5 4 2 1 3 5 2 3 5 6 6 5 9 11 7 6 7 8 10 10 6 7 11 12 13 14 14 13 13 13 14 15
22 20 19 18 16 16 16 15 14 13 12 12 12 13 13 12 13 13 12 13 13 11 9 7 6 4 3 3 2 2 1 2 4 8 12 13 10 8 7 6 5 6 5 5 4 5 6 5 6 5 5 3 4 4 3 4 3 3 2 1 4 4 3 3 3 5 7 7 10 10 7 6 7 6 9 13 15 15 12 9 8 9 10 12 13 13 14 15
23 21 20 19 17 17 16 15 14 13 12 12 13 13 13 12 12 12 12 13 12 11 9 7 6 4 3 2 2 3 1 3 6 9 12 12 9 6 4 3 3 4 4 4 4 4 5 5 6 7 6 4 2 3 4 5 4 4 2 2 4 2 3 2 3 5 6 6 8 7 6 6 6 5 5 14 20 19 17 15 13 12 11 12 13 14 15 14
23 22 21 20 19 18 17 16 14 13 12 13 13 13 13 12 12 12 12 13 12 11 9 7 6 4 3 2 2 3 1 4 6 8 11 11 7 5 2 0 2 3 2 2 3 4 5 5 7 7 5 3 3 2 4 5 5 5 3 3 4 2 2 2 3 5 6 5 6 5 5 5 6 5 7 18 21 17 18 19 18 18 16 15 14 14 15 16
23 23 22 20 19 18 17 16 14 14 13 13 13 13 13 12 12 12 12 12 12 10 9 7 6 4 3 3 2 2 2 3 6 8 10 10 7 4 1 2 3 2 1 1 3 4 4 5 6 5 4 5 6 4 4 3 2 3 4 3 4 3 3 3 4 5 5 4 4 5 4 4 5 4 10 21 21 18 19 18 18 18 17 16 15 14 15 16
22 22 21 20 19 18 17 16 15 14 14 14 14 13 13 12 12 12 12 12 11 10 9 7 6 4 3 2 2 2 3 4 6 9 10 9 7 4 2 1 1 0 1 2 3 4 5 5 6 7 7 7 6 5 5 4 2 3 4 4 4 3 3 1 4 4 4 4 4 5 3 2 4 2 8 13 12 15 18 18 18 17 17 16 15 15 15 17
22 21 20 20 19 18 17 17 16 16 16 15 14 14 13 13 12 12 12 12 11 10 9 7 6 4 3 3 4 3 3 3 6 10 10 9 7 5 3 2 2 2 2 3 4 5 6 6 7 7 5 5 5 6 6 6 5 4 3 2 3 5 3 3 3 3 3 3 4 4 2 1 4 3 11 13 10 12 14 16 18 18 17 16 15 16 16 18
20 20 19 19 19 18 18 17 17 17 16 16 15 14 14 13 13 12 12 11 11 9 8 7 6 5 4 4 5 4 2 2 6 10 11 9 8 5 3 3 2 3 3 4 5 6 6 6 6 5 5 8 5 4 6 6 5 5 5 1 5 8 4 3 2 3 3 2 2 0 3 4 4 10 19 16 13 15 15 16 18 18 18 17 17 17 18 19
17 17 17 18 18 17 17 17 17 16 16 16 15 15 14 14 13 12 12 11 10 9 8 7 6 5 4 4 5 4 5 3 5 10 11 10 9 7 5 4 2 2 2 3 4 5 5 5 5 7 9 9 5 5 7 5 4 3 5 2 3 7 4 3 2 1 3 3 4 4 3 6 6 17 20 14 15 16 16 19 20 19 19 18 19 19 20 20
14 15 15 15 16 16 16 16 16 15 15 15 15 15 15 14 13 12 12 11 10 9 8 7 6 6 5 4 4 5 6 6 7 10 12 11 9 8 7 5 2 3 2 1 3 4 5 5 5 8 9 8 8 10 6 5 4 1 2 2 2 2 4 5 2 3 3 4 7 6 4 7 7 14 13 12 16 15 18 21 20 21 20 21 21 21 22 22
13 13 13 13 14 14 14 14 14 14 14 14 14 14 13 13 12 11 11 10 9 9 8 7 6 5 4 5 6 7 8 9 10 12 12 12 11 9 8 6 4 4 3 2 2 3 5 5 6 8 9 9 10 7 3 4 4 3 1 2 3 1 5 8 3 5 3 2 8 7 3 7 9 12 8 10 14 15 20 22 21 22 21 22 23 22 23 23
13 13 13 12 12 12 12 12 12 12 13 13 13 12 12 11 10 10 9 9 9 8 7 6 6 5 3 4 6 7 9 12 13 13 14 14 12 10 9 7 5 5 3 2 3 4 5 5 7 8 7 7 6 5 4 4 4 4 1 2 1 1 2 6 3 3 2 2 5 5 3 5 6 5 3 4 10 15 19 21 21 22 22 23 23 23 24 24
15 14 14 13 12 12 11 11 11 11 11 11 11 10 9 9 9 8 8 8 7 7 6 5 5 4 5 6 7 8 12 14 14 15 15 14 13 10 9 8 6 6 4 3 3 4 4 4 7 6 4 4 3 5 4 2 4 3 2 1 3 2 2 3 4 2 1 2 3 4 4 8 8 9 10 7 7 13 18 22 23 22 23 23 24 25 25 25
16 15 14 14 13 12 12 11 11 11 10 10 9 8 8 7 7 7 7 7 7 5 4 6 5 1 6 11 9 8 11 13 13 14 15 14 13 11 10 8 6 6 5 4 3 4 4 4 5 2 3 3 2 5 3 4 4 3 2 1 2 2 2 3 4 2 2 1 3 3 5 11 12 16 23 18 11 14 18 22 23 23 25 24 25 26 26 27
15 16 15 15 14 13 13 12 11 11 10 10 9 9 8 7 6 5 6 8 9 5 2 9 11 4 2 9 12 9 7 9 12 13 15 15 14 13 10 7 7 7 6 4 2 3 5 4 5 2 1 2 4 6 7 7 6 6 6 4 3 3 3 5 6 4 2 2 4 7 9 11 12 13 20 21 15 17 21 22 25 26 27 27 27 28 28 29
15 15 16 15 15 14 13 13 12 11 11 10 10 10 8 8 5 3 8 11 13 11 4 7 13 9 2 2 8 11 7 7 10 13 15 16 16 14 10 8 7 5 4 4 2 2 4 4 2 5 7 7 8 7 6 5 7 7 5 3 4 4 4 5 5 4 1 2 6 9 9 10 12 11 17 21 14 14 20 23 28 31 31 31 31 32 32 33
15 16 16 15 15 14 14 14 12 11 11 10 12 10 8 9 5 1 8 10 14 17 13 9 10 12 8 3 4 8 8 8 10 14 15 16 16 13 9 8 6 3 1 4 5 3 4 3 7 9 6 5 6 6 7 6 6 5 5 2 2 3 5 7 4 3 0 2 5 5 7 12 12 11 18 20 11 14 23 24 29 34 34 35 35 36 37 36
15 16 16 16 15 14 14 14 12 12 11 11 12 10 7 9 7 4 4 4 8 13 17 18 15 14 14 11 8 7 8 7 8 14 16 17 17 12 10 8 5 3 2 4 6 3 3 3 10 8 7 8 5 6 7 5 5 4 3 2 3 3 4 6 3 4 1 2 4 5 7 11 11 10 16 20 17 21 28 29 33 36 35 36 38 39 40 38
16 15 16 16 15 15 14 14 13 12 12 12 12 11 8 7 7 6 3 2 6 10 14 19 20 20 20 17 14 12 11 7 7 14 17 18 18 13 12 9 4 4 3 4 6 4 2 6 9 8 11 8 6 5 7 5 3 2 3 2 3 2 2 4 4 4 1 1 3 4 8 10 9 10 13 22 27 27 30 33 36 38 38 40 41 40 39 39
16 16 16 17 16 15 14 14 15 13 12 12 11 11 9 6 6 4 3 1 4 7 12 16 18 22 23 19 17 16 14 10 8 13 19 21 18 12 10 9 6 5 4 7 7 5 5 5 2 7 8 7 6 4 6 5 2 3 5 6 4 3 5 5 3 4 2 2 3 4 8 8 7 9 10 13 16 19 27 30 33 39 43 44 43 41 41 41
16 16 17 17 17 16 14 15 15 14 13 13 11 12 10 7 4 2 1 1 4 4 7 13 15 18 22 20 18 15 12 12 12 13 18 23 20 11 6 7 6 4 6 6 5 4 6 3 5 7 4 6 7 4 5 7 3 4 5 9 9 7 7 5 3 5 4 3 4 4 5 6 3 5 9 6 3 9 17 19 26 37 41 41 42 44 44 42
14 15 16 17 17 17 16 14 14 14 14 14 13 13 10 7 5 3 3 4 4 4 3 8 10 11 15 17 18 15 6 9 14 16 18 22 22 12 6 5 3 3 6 6 3 3 2 2 5 7 5 6 6 2 5 7 4 2 4 7 9 6 4 4 1 1 1 4 3 4 2 7 5 5 9 7 4 9 10 10 20 32 35 35 37 39 39 37
12 12 13 15 16 18 17 14 15 15 14 13 14 14 11 9 7 5 4 4 5 5 7 8 9 9 11 15 23 17 3 5 11 15 21 23 21 13 7 4 3 2 5 6 1 2 3 3 4 6 6 5 5 3 6 8 7 3 4 4 6 6 5 5 4 3 3 2 4 3 2 5 9 6 7 8 7 9 11 12 17 27 34 32 31 31 30 31
12 12 11 12 13 15 15 15 16 15 13 12 15 15 13 12 10 7 5 1 3 5 6 6 8 10 12 19 25 15 6 11 9 11 23 24 20 12 6 8 7 5 6 7 4 3 3 5 5 6 5 4 5 4 6 11 5 4 2 5 6 6 5 4 5 2 2 3 4 3 2 3 10 5 1 2 7 7 12 15 16 24 29 24 21 23 22 23
13 13 12 11 10 11 14 17 15 13 11 11 15 17 16 16 11 7 5 2 2 4 3 6 8 9 14 19 17 8 9 7 3 12 23 21 18 9 3 10 10 6 4 4 4 2 1 4 7 8 5 5 4 1 4 9 4 4 6 7 6 5 5 5 4 3 2 2 5 5 5 3 10 4 4 2 4 7 12 12 13 20 21 15 16 17 15 17
16 15 14 12 13 14 15 16 16 14 14 15 18 21 22 17 9 5 2 4 2 2 3 7 7 8 16 14 4 1 5 1 5 16 16 11 13 6 5 8 6 6 1 3 1 2 1 1 3 4 4 5 6 4 2 3 6 9 7 6 6 5 4 3 2 4 2 5 5 7 10 6 7 4 4 3 4 7 10 8 10 16 15 12 12 11 11 13
20 20 18 18 19 19 16 16 18 18 19 21 24 28 23 10 4 4 5 2 1 1 4 4 2 7 14 10 3 3 2 2 7 14 8 5 7 5 6 6 3 4 2 4 2 4 3 1 1 3 6 8 8 5 6 5 7 8 4 4 4 3 4 4 4 4 1 6 4 4 4 6 8 5 2 5 6 5 7 7 9 11 11 9 7 7 8 9
23 23 23 23 21 19 15 11 15 21 23 27 31 30 17 4 1 5 5 1 1 4 5 3 1 6 9 6 4 6 3 2 5 8 5 4 5 5 5 5 5 3 2 6 3 4 2 4 2 3 6 8 7 5 5 4 1 3 4 6 4 2 2 2 3 1 3 6 3 2 1 4 10 8 5 9 10 9 10 12 13 14 16 14 10 10 10 9
24 25 26 26 24 22 16 8 15 24 28 34 34 22 8 2 5 9 8 3 2 2 3 4 2 5 8 6 4 4 3 2 5 4 2 4 5 6 4 3 4 2 2 6 3 1 3 4 1 4 3 9 10 6 3 1 3 5 5 6 4 2 1 3 3 2 4 5 3 2 1 3 6 5 9 15 16 14 14 19 22 22 24 22 18 17 15 11
25 25 28 29 27 25 18 13 21 28 34 39 28 11 4 5 8 10 11 7 0 3 3 4 5 5 5 4 3 4 3 2 5 4 2 4 5 6 5 5 5 1 3 4 3 6 5 6 6 6 4 12 13 8 7 6 5 6 4 5 5 5 5 4 3 4 4 4 3 2 1 3 3 3 7 12 13 13 16 23 26 28 31 29 26 25 21 16
24 24 28 30 30 29 23 20 26 32 40 38 19 6 7 8 8 10 10 5 2 2 3 3 6 6 3 2 2 3 2 1 4 4 3 5 5 6 6 8 10 6 5 4 2 4 4 7 6 1 1 12 11 4 6 8 3 3 3 4 3 4 5 2 3 5 2 3 3 2 4 5 4 6 9 10 12 13 16 20 22 29 35 31 29 30 26 22
23 25 28 32 34 34 27 24 29 35 40 29 10 7 12 11 9 7 5 5 5 5 6 3 4 4 4 2 1 4 1 1 4 3 3 3 2 6 7 7 11 12 9 7 2 2 3 5 4 3 2 4 4 1 4 4 3 2 3 4 4 4 6 3 2 1 3 3 4 3 6 6 4 9 9 7 10 12 14 16 19 26 26 21 25 29 26 24
24 27 32 37 38 37 32 29 32 39 39 21 9 10 10 11 8 4 4 6 8 11 9 3 3 5 6 4 3 6 3 1 5 4 4 2 3 7 8 5 9 15 14 8 2 2 4 3 4 2 1 3 1 5 5 4 4 5 3 6 4 2 3 3 2 2 3 3 4 1 6 6 3 7 4 2 5 9 12 14 15 18 16 18 26 27 25 23
25 29 35 40 40 38 37 33 34 40 32 13 9 10 7 8 7 7 6 6 8 10 7 5 5 5 6 6 5 7 6 4 6 6 4 3 5 8 10 6 9 19 21 11 3 3 3 2 4 1 2 2 2 4 3 4 3 4 4 5 4 2 2 2 2 2 1 3 5 3 5 6 5 7 5 2 6 10 12 9 7 10 15 22 28 28 26 25
21 23 26 35 41 41 39 35 38 37 22 9 9 9 6 7 6 7 6 5 6 7 6 6 5 3 5 7 4 5 8 7 8 7 5 5 6 7 14 12 8 15 22 17 6 2 3 3 3 2 1 1 2 2 4 2 2 4 2 3 2 2 4 3 3 3 3 2 4 3 4 8 8 7 6 9 11 11 10 8 4 10 18 22 23 24 24 24
15 10 8 19 34 41 41 40 39 29 13 8 11 9 8 8 6 8 12 7 3 3 4 4 5 5 5 6 4 4 6 5 7 7 5 6 6 4 10 12 5 6 17 18 9 1 3 3 3 2 3 1 3 4 8 10 7 3 4 5 3 1 2 1 1 2 3 3 2 2 7 12 8 5 8 10 10 9 9 8 6 12 20 18 16 16 16 18
13 5 4 10 19 31 42 37 26 16 7 6 11 9 8 6 5 13 22 15 4 1 1 3 5 5 4 5 3 3 5 3 6 6 3 6 7 5 8 14 12 9 9 10 9 5 4 3 4 2 1 4 5 4 5 8 7 6 7 8 8 6 4 2 2 2 3 3 4 3 8 15 7 5 7 8 7 8 9 7 6 13 19 15 12 12 11 12
14 4 4 10 12 27 38 22 10 11 8 6 8 6 6 5 3 8 16 16 10 4 1 1 3 3 3 5 4 4 6 4 5 6 4 7 10 5 7 15 21 21 14 6 7 7 5 3 3 3 4 6 5 3 2 3 3 3 2 3 5 5 5 5 5 4 2 1 1 4 4 14 5 6 6 6 6 6 7 7 8 16 18 13 11 10 8 9
14 7 6 11 17 31 31 10 6 11 6 6 6 3 5 5 3 5 9 13 12 8 6 3 2 4 4 3 4 6 7 6 6 9 6 6 8 6 7 15 20 20 12 3 1 4 4 2 3 2 3 2 3 2 1 1 3 2 1 3 6 7 8 6 4 4 4 4 4 3 6 13 5 3 4 4 5 6 8 11 13 17 16 12 11 8 5 7
11 10 8 9 19 32 24 5 7 10 5 7 7 6 7 5 5 8 7 9 10 7 7 7 5 6 4 2 5 6 8 6 7 11 9 4 5 6 11 20 20 13 9 6 7 11 8 3 4 3 2 3 2 2 1 1 1 3 4 5 7 9 7 3 1 2 2 9 11 6 9 14 3 2 2 3 4 7 10 12 14 16 16 13 11 7 5 5
8 7 8 11 22 33 21 6 8 9 7 8 7 10 11 4 7 14 9 7 10 7 6 8 8 7 3 2 3 4 8 8 7 8 8 5 3 3 11 23 23 16 12 10 11 15 10 4 7 7 6 8 8 6 4 3 2 2 4 7 9 10 11 7 3 4 7 12 11 8 13 15 3 1 4 4 3 6 9 9 12 16 17 14 12 8 6 5
7 5 5 9 22 30 22 12 12 9 7 8 5 8 12 7 5 11 10 7 9 10 6 3 5 7 5 4 4 5 8 10 8 4 4 5 4 1 9 21 26 24 18 10 11 12 4 2 10 12 11 13 13 10 5 8 7 6 9 12 13 14 15 10 6 8 11 7 6 13 20 19 14 8 6 5 5 6 6 7 12 16 16 15 14 11 7 5
5 4 5 6 11 16 14 11 11 7 7 10 6 4 13 13 5 4 9 9 9 10 5 1 3 7 8 10 11 9 10 10 8 6 5 6 3 2 3 12 19 24 18 11 14 12 2 3 11 14 16 18 18 14 8 11 11 14 15 16 16 16 16 13 14 18 13 4 9 21 19 16 23 19 9 7 7 5 5 10 16 16 11 11 13 12 9 7
6 4 7 11 7 4 8 11 11 8 8 10 6 3 9 13 8 5 7 8 8 9 5 2 7 11 11 12 11 9 10 9 7 8 8 7 3 1 1 4 9 17 13 9 13 10 3 6 10 12 17 19 19 17 12 12 13 13 15 18 18 18 18 20 24 26 18 10 16 24 16 15 25 24 14 9 8 8 11 15 16 12 10 12 13 13 11 8
9 6 6 11 7 4 9 14 12 10 9 8 5 4 6 10 11 9 6 3 3 8 9 7 11 14 12 10 8 7 9 9 9 10 10 9 6 3 2 3 5 9 8 5 6 4 3 7 11 13 15 16 19 18 12 13 13 11 11 15 17 20 24 27 28 27 21 17 21 24 20 21 23 17 11 12 17 19 17 15 15 14 15 17 16 15 13 11
12 8 5 7 6 3 6 10 9 7 8 9 6 5 6 9 11 8 6 6 4 5 10 13 15 12 10 10 10 10 11 11 11 11 8 8 7 4 4 4 2 3 5 4 2 1 4 6 8 8 8 12 18 18 12 10 11 11 9 10 15 22 26 27 25 20 17 20 25 24 21 22 15 5 8 16 24 22 16 16 22 23 23 23 21 20 19 18
18 12 7 4 4 4 5 5 6 5 5 7 7 6 7 9 11 7 3 8 10 7 9 15 17 11 8 10 12 14 18 16 14 13 8 6 7 5 4 4 4 4 3 5 2 2 4 4 2 2 5 11 15 18 14 8 5 7 10 13 19 22 20 18 18 18 18 21 23 18 16 19 10 6 9 15 18 16 16 22 28 30 32 32 29 28 28 28
24 21 15 7 3 5 6 3 4 5 5 6 9 8 7 8 9 9 3 7 15 17 15 14 12 8 6 10 14 18 22 20 19 22 17 12 12 11 8 6 7 6 5 5 2 2 4 4 3 4 6 11 16 17 12 4 2 7 14 22 26 22 16 13 15 21 22 19 16 14 17 21 12 5 8 11 11 13 19 27 33 35 37 40 39 38 38 36
Wind_Direction
196 198 198 198 198 198 197 196 198 201 202 203 202 200 198 196 194 193 192 190 191 192 193 197 202 205 202 203 209 223 228 261 328 324 344 125 142 130 114 111 106 98 106 155 168 164 123 93 85 90 110 107 90 92 98 100 109 110 97 95 153 177 196 190 180 187 164 175 190 180 178 166 157 175 173 179 196 207 211 213 217 222 226 233 239 247 250 230
197 198 199 200 201 200 200 199 202 204 204 205 204 201 198 196 196 196 195 194 194 194 196 200 206 209 206 203 211 228 232 281 308 294 171 144 145 128 112 107 96 83 74 86 162 182 138 98 94 106 120 105 82 94 100 79 84 84 99 112 200 196 203 192 180 181 139 108 174 173 179 179 169 176 176 179 202 202 212 222 223 230 234 236 242 246 248 234
198 199 200 201 202 202 201 203 205 207 207 207 206 201 198 197 197 198 197 196 195 196 199 204 209 211 209 204 213 225 245 286 289 289 141 147 137 123 112 104 91 84 79 81 128 151 139 116 105 117 114 98 79 98 91 54 70 70 99 118 233 206 209 192 183 180 148 111 163 168 180 183 174 176 181 193 201 200 219 227 224 232 239 240 244 246 246 236
201 201 202 203 204 204 204 205 207 209 210 210 206 202 200 199 199 200 199 197 196 196 199 203 207 209 209 204 210 227 270 305 181 127 138 140 132 122 110 101 90 82 81 81 98 105 119 117 111 118 108 92 71 92 65 33 68 83 108 155 220 180 148 178 186 192 187 152 164 168 168 181 187 184 192 188 177 235 238 237 237 243 250 250 249 249 246 237
204 204 205 206 207 207 207 208 210 211 212 211 206 203 201 201 201 200 200 198 196 196 198 202 205 207 206 201 208 221 291 21 141 136 140 141 133 124 111 100 84 76 78 74 89 103 115 119 120 115 98 82 54 75 39 30 86 85 57 217 156 131 103 160 180 193 188 165 161 162 157 184 190 193 206 194 195 241 245 249 248 250 253 251 250 250 246 239
205 207 208 210 209 209 210 210 213 213 213 211 206 204 203 203 203 202 200 198 196 197 200 201 204 203 199 202 208 210 123 82 149 143 145 147 139 132 117 96 75 64 61 69 91 105 114 120 122 109 87 70 42 68 53 30 97 96 12 194 138 106 67 129 156 174 180 172 162 163 175 190 183 203 221 214 228 243 246 251 248 247 246 247 248 247 247 242
206 208 211 213 212 211 212 212 215 216 214 210 206 205 205 205 204 202 201 197 197 199 202 204 205 204 199 202 200 209 142 113 147 150 155 155 149 148 131 95 67 47 43 67 89 110 116 113 114 106 89 76 71 84 54 43 77 99 101 165 155 68 34 119 138 159 168 176 169 166 187 192 193 217 236 234 244 250 250 253 252 253 251 251 251 248 248 243
208 210 213 214 213 213 213 214 216 216 213 208 206 206 206 207 204 202 199 196 199 201 204 206 206 204 198 204 205 208 161 133 157 163 165 167 167 167 164 358 1 1 4 51 73 113 120 106 111 108 93 86 116 109 53 62 53 61 128 176 159 90 41 142 153 163 162 168 174 184 203 210 224 237 254 254 256 254 252 255 254 254 253 252 251 249 246 239
211 213 215 215 214 214 215 215 215 212 209 206 206 207 207 206 204 200 196 196 200 203 205 206 208 209 204 214 215 200 174 160 172 174 174 179 184 190 228 314 322 319 303 64 77 116 123 112 113 112 124 123 113 82 52 80 24 37 125 142 135 92 58 141 172 174 179 189 189 209 226 229 233 256 264 260 261 255 251 253 252 252 250 249 248 245 241 236
213 215 216 216 215 216 216 214 211 206 203 204 205 205 206 204 203 199 197 198 202 204 207 209 210 208 213 219 200 182 187 178 175 179 180 185 192 206 241 297 288 203 114 104 95 109 115 112 113 111 117 118 104 63 42 76 103 73 95 104 97 56 28 151 193 194 207 225 226 224 237 225 199 206 259 255 253 249 249 250 250 249 247 245 243 238 234 232
212 214 215 215 215 215 213 208 204 201 200 202 201 202 203 202 200 198 198 201 204 206 209 213 216 214 222 219 199 169 164 180 184 184 184 187 195 208 224 207 128 110 107 111 108 105 107 109 120 122 112 117 105 68 64 86 100 72 76 111 20 357 323 279 235 227 228 239 250 241 276 242 150 186 247 246 243 247 248 248 249 246 244 242 238 234 230 228
211 212 212 212 211 209 208 205 201 199 198 198 196 197 199 199 199 198 200 203 206 211 213 217 220 220 226 237 235 213 170 160 182 186 186 192 198 208 212 173 126 115 102 102 110 104 107 113 120 123 116 132 127 77 89 94 92 71 72 154 321 354 337 304 307 235 215 237 254 66 308 269 183 229 247 249 248 248 246 245 246 243 240 237 234 232 228 228
209 208 209 208 206 205 204 202 200 198 195 194 193 193 195 196 196 197 200 203 208 213 216 222 224 229 235 246 250 228 217 213 189 188 190 195 201 210 208 178 160 148 119 103 111 103 112 116 107 116 117 125 129 116 117 91 93 82 56 90 321 1 341 318 18 200 184 201 179 128 276 265 231 243 248 251 249 245 241 241 242 240 238 236 233 232 229 229
205 203 205 205 203 202 200 199 197 194 192 191 192 193 194 193 194 196 199 203 208 213 218 223 224 229 237 239 242 231 222 215 202 197 196 199 203 207 207 197 192 181 177 127 117 109 110 106 103 113 107 109 123 124 105 43 58 67 24 38 24 19 281 301 1 159 162 194 174 145 256 263 261 259 254 252 247 243 242 241 241 239 237 238 236 234 234 234
197 199 199 201 201 198 197 195 193 192 191 191 193 195 194 192 193 194 197 201 205 211 216 221 224 227 238 243 238 234 226 217 212 206 202 204 206 208 206 203 203 197 196 171 147 130 115 113 113 104 97 110 122 113 47 8 28 37 21 314 358 148 267 307 307 176 167 191 173 159 249 270 276 272 273 261 244 236 241 243 241 241 240 240 240 239 239 239
190 194 195 197 198 197 195 191 190 190 187 188 190 193 193 193 193 192 196 201 203 209 213 218 223 220 239 246 232 231 226 220 215 210 208 207 207 206 204 207 208 199 190 166 152 138 135 123 105 98 101 117 116 91 49 21 353 5 62 231 258 151 278 316 323 191 167 120 184 197 243 277 284 266 292 294 242 229 235 242 240 240 242 241 242 243 243 242
188 192 195 195 196 198 197 194 193 190 186 185 185 186 187 186 188 190 194 196 200 207 209 217 221 224 248 245 232 230 223 218 215 212 211 208 207 204 204 207 199 196 189 162 150 140 140 121 109 105 88 83 86 91 72 351 297 322 21 233 234 195 206 298 318 276 130 105 216 232 235 253 268 265 276 296 262 235 236 244 245 243 245 245 245 246 245 244
192 196 198 199 200 199 199 199 198 195 189 186 184 183 183 181 184 188 191 196 193 187 209 216 197 203 247 231 220 222 221 218 214 211 209 207 205 202 204 205 192 190 173 145 142 127 115 97 102 95 41 35 64 103 131 220 207 191 172 177 245 232 212 252 282 264 128 121 229 238 250 253 265 271 270 272 262 247 248 255 257 254 252 251 249 247 247 245
199 201 203 203 204 203 203 202 200 199 191 185 184 177 173 166 166 184 197 197 186 166 194 208 190 154 214 218 214 216 216 210 207 206 206 205 202 200 199 191 182 172 149 140 115 100 108 82 79 98 218 210 186 162 181 194 161 155 166 154 171 211 244 236 250 256 184 206 238 232 243 252 259 267 269 268 259 249 254 261 261 260 257 254 252 250 248 247
208 207 208 207 208 206 205 204 203 201 192 187 181 169 161 151 135 188 205 206 209 205 205 200 195 193 155 160 207 212 207 197 202 200 199 200 198 194 185 171 164 147 129 149 150 99 104 92 130 206 218 205 195 176 155 143 125 121 127 129 169 200 264 254 255 286 191 199 250 238 241 258 260 263 267 268 261 245 250 255 258 259 257 254 253 252 251 250
216 215 214 212 211 209 209 208 206 201 197 193 182 172 170 170 155 178 198 212 229 224 227 227 208 210 223 236 198 199 196 192 198 197 195 195 190 186 181 165 141 128 135 121 115 94 96 128 219 224 203 174 175 149 120 109 96 96 125 163 228 210 252 250 244 309 115 186 269 276 268 262 256 260 267 267 257 240 243 246 253 258 258 257 256 255 255 253
221 221 220 219 214 213 215 212 209 203 198 195 187 184 190 192 193 202 196 228 247 234 233 233 227 223 226 232 224 202 189 183 194 196 191 186 184 186 179 157 129 154 178 105 103 63 79 211 240 215 127 95 94 113 115 112 95 88 121 157 259 243 271 277 290 332 28 193 277 316 289 269 261 257 261 259 248 248 249 248 253 257 258 257 257 257 257 254
219 222 224 226 220 217 217 215 213 206 199 197 193 193 198 200 202 214 230 283 267 248 235 232 234 230 226 228 229 215 198 190 193 194 192 186 184 187 173 150 125 137 151 172 158 133 157 246 253 189 141 104 68 82 99 99 103 131 148 164 245 247 281 283 300 324 35 189 285 311 290 275 264 255 253 252 247 252 256 253 255 256 256 257 258 259 258 256
213 216 222 226 225 222 218 218 216 207 203 202 198 202 207 205 200 213 225 286 293 254 235 234 234 231 229 228 228 218 206 209 207 195 195 190 179 177 176 155 124 132 181 195 171 169 217 255 246 147 148 123 101 107 118 129 231 247 197 192 213 213 219 234 288 322 331 7 13 336 295 276 256 251 252 254 250 254 256 254 255 255 255 257 258 257 257 256
208 211 217 220 223 223 218 221 219 209 206 204 202 206 208 206 189 174 156 39 308 264 237 232 228 233 229 224 222 210 204 219 218 204 199 194 182 166 159 154 141 177 203 172 148 213 247 228 127 118 114 116 122 151 171 164 204 281 232 205 211 212 221 243 333 4 353 333 352 11 312 282 265 248 255 271 285 260 255 250 251 254 255 255 255 256 256 255
205 210 214 215 218 218 214 218 220 214 207 203 204 203 202 195 170 161 121 56 298 241 190 205 209 223 217 208 198 185 202 235 214 204 196 194 191 172 142 143 131 195 185 145 143 229 234 150 117 118 122 126 129 185 218 177 148 293 254 207 207 199 201 232 221 53 291 262 299 44 11 282 278 222 236 246 250 263 265 256 252 255 257 254 253 257 256 255
200 208 214 217 217 215 211 212 219 215 202 200 201 192 186 174 151 150 113 27 286 191 150 177 180 187 196 187 180 175 201 189 177 194 190 188 194 184 173 166 109 183 166 133 201 250 153 124 85 107 114 118 139 210 224 164 137 243 257 161 163 168 185 200 165 182 241 269 319 22 107 278 281 242 226 218 223 266 275 268 263 259 258 258 258 261 261 261
197 202 211 219 223 220 210 212 219 209 197 199 194 179 164 155 146 128 106 351 264 141 135 170 161 172 176 173 177 170 136 143 143 187 185 182 189 185 190 192 171 179 170 151 211 261 141 162 175 150 127 149 182 225 192 153 143 251 220 115 132 150 155 134 124 168 316 4 308 296 130 262 276 264 52 215 217 248 261 257 259 258 260 263 265 268 269 267
203 203 208 214 226 228 213 210 211 199 186 179 175 168 150 144 141 100 84 230 198 109 124 157 147 159 155 161 177 157 128 142 116 172 177 179 186 182 183 193 172 151 170 171 192 233 89 181 191 156 145 194 196 306 187 164 169 181 132 93 80 76 78 83 104 119 45 327 245 222 170 234 277 255 100 83 202 220 243 248 255 260 266 273 270 270 269 263
211 210 210 209 213 217 215 206 194 183 171 161 161 159 147 142 132 94 133 233 194 94 110 147 158 160 148 147 180 130 124 108 114 147 161 173 181 166 117 159 145 115 116 348 128 229 337 103 178 159 161 169 130 65 44 128 138 136 115 73 62 39 41 54 42 85 59 279 241 208 187 192 277 276 141 173 211 211 225 242 260 265 271 275 267 264 263 261
221 217 211 212 216 216 216 205 190 179 166 158 158 154 146 134 92 138 198 239 32 118 120 137 163 152 151 148 167 183 105 41 137 146 147 154 163 142 116 135 112 85 352 312 304 312 331 114 200 185 158 130 105 69 40 70 121 121 92 89 86 354 9 28 352 51 138 258 255 242 208 195 241 255 193 244 264 236 216 229 252 264 272 266 250 260 273 274
233 230 221 217 224 226 223 208 187 177 163 157 158 155 147 110 56 206 218 56 43 202 153 154 186 152 160 150 153 171 124 86 166 156 145 144 160 176 172 178 166 121 275 237 240 325 267 224 230 149 165 156 124 79 50 33 54 95 98 115 106 335 348 345 314 48 233 256 271 289 291 232 246 251 253 263 269 249 224 230 241 255 267 263 249 262 277 279
237 238 232 223 226 230 227 200 181 177 163 158 160 153 130 134 200 216 221 195 224 228 120 113 119 139 152 150 164 169 121 152 186 169 149 141 168 209 234 231 182 155 200 188 185 235 259 295 191 136 202 193 171 151 154 197 191 166 147 143 144 138 173 272 278 269 268 272 293 298 217 252 274 272 236 239 249 248 241 247 252 256 263 264 259 262 268 268
230 234 235 230 230 234 231 195 182 178 164 159 160 146 127 190 209 214 215 212 258 18 55 96 105 117 142 159 207 180 141 200 178 148 131 135 161 214 237 241 219 159 104 144 171 186 220 281 200 170 191 187 187 190 165 140 159 186 160 141 157 155 171 216 217 222 264 289 298 304 234 214 240 274 236 241 263 267 252 250 254 258 259 259 259 258 258 257
225 228 232 231 227 230 226 193 180 177 166 161 159 156 177 202 223 219 210 193 121 41 31 70 102 118 177 286 297 202 169 212 167 129 156 171 182 200 196 209 204 170 137 177 212 170 210 267 237 226 128 168 181 191 127 112 146 208 121 118 185 183 161 175 202 184 180 307 295 228 227 225 220 260 261 259 272 271 256 252 252 253 254 255 256 257 256 254
221 222 226 229 225 226 220 190 179 178 169 163 164 181 192 208 213 209 187 137 141 138 102 75 83 114 194 238 274 224 211 102 151 146 200 204 231 208 198 215 199 183 180 180 179 141 175 280 297 360 23 163 176 147 121 131 177 164 129 178 209 164 126 118 241 74 74 273 271 199 245 286 302 277 271 246 250 259 262 260 251 250 255 258 257 258 258 256
216 218 221 224 225 228 219 192 180 179 174 173 192 189 202 216 192 147 141 130 134 139 133 162 173 150 182 192 200 204 194 104 158 180 202 190 254 211 200 233 199 193 200 186 184 201 166 262 307 55 199 259 39 89 75 55 116 125 179 199 173 113 95 105 221 358 45 254 272 221 252 283 292 278 305 108 226 252 253 253 256 263 267 261 256 255 257 256
217 218 219 222 225 227 217 195 179 178 177 184 212 205 216 216 164 114 127 131 129 144 157 198 192 163 177 188 195 184 176 174 172 185 188 183 245 205 178 206 205 199 205 193 206 245 155 235 301 43 198 273 38 110 91 19 77 121 182 177 134 144 186 120 162 221 177 247 283 290 270 266 219 233 263 212 223 244 250 254 269 271 257 251 255 255 254 253
219 213 217 223 223 222 217 200 183 180 182 188 207 215 228 215 165 117 135 133 132 163 183 196 186 160 173 175 165 166 184 189 170 177 187 186 234 203 176 192 203 196 196 186 194 236 139 205 271 327 268 323 33 174 182 194 49 51 89 150 114 128 174 165 154 178 173 224 285 310 298 266 228 204 204 214 222 227 246 260 258 263 259 255 259 260 259 257
219 212 231 224 217 217 213 199 185 184 193 194 197 208 218 221 211 205 213 202 131 166 196 187 171 169 178 168 146 168 195 196 172 184 207 191 217 235 189 185 158 166 183 181 191 169 116 202 238 313 324 214 192 212 192 183 168 142 159 173 188 130 119 174 145 128 137 152 235 276 281 271 247 181 182 209 219 208 220 233 224 256 267 268 269 271 271 267
208 227 265 214 212 210 201 189 181 188 204 203 209 213 207 213 208 212 220 219 205 175 149 159 176 174 162 164 176 170 167 179 185 197 235 207 212 246 201 180 156 136 153 174 198 195 161 193 190 180 247 211 226 249 215 194 175 176 190 188 187 169 132 161 233 214 149 170 194 187 268 274 254 167 186 204 206 200 211 221 224 251 261 269 276 276 275 273
195 217 230 190 193 195 188 182 175 185 195 205 209 204 187 195 186 193 209 213 219 236 192 149 191 184 160 167 180 160 155 174 190 195 232 224 215 224 200 183 166 153 148 165 203 190 153 122 148 191 215 217 243 275 228 203 136 124 198 189 170 160 157 174 209 217 162 212 228 110 266 274 249 157 187 203 203 208 215 221 241 258 263 269 275 273 273 273
192 203 205 184 189 188 183 184 185 182 209 222 200 184 180 191 183 170 189 199 207 218 215 209 178 197 209 171 152 165 178 188 193 201 224 238 229 225 191 179 167 156 154 159 194 158 133 123 182 236 295 304 318 345 3 34 93 105 267 188 169 187 193 182 190 189 153 196 208 125 249 263 256 147 213 242 238 234 229 231 247 265 272 274 273 270 265 264
202 205 196 184 195 191 184 181 186 188 221 208 201 220 210 205 205 197 190 187 192 199 208 219 210 204 218 157 147 180 189 191 205 210 216 229 230 217 188 180 174 168 178 189 175 166 165 180 181 182 302 307 313 311 304 352 128 189 227 200 190 194 180 139 115 149 187 214 200 182 245 253 264 61 255 283 283 258 244 242 251 264 270 270 269 265 255 257
204 209 201 192 198 197 196 192 179 189 201 185 194 214 209 219 215 208 204 189 195 193 195 221 218 201 196 145 156 189 194 206 224 211 210 231 238 206 189 185 182 189 209 207 180 170 169 183 174 177 223 233 236 238 216 172 150 211 225 195 196 196 181 181 202 199 230 225 194 193 242 250 271 64 226 253 285 264 254 249 249 255 260 264 266 259 251 256
189 205 205 192 197 203 212 209 181 180 193 184 186 205 207 219 212 202 198 194 206 204 198 233 207 189 190 187 205 220 210 224 236 203 197 224 229 227 194 191 191 200 210 205 176 167 153 205 188 192 211 222 239 244 174 131 153 205 213 195 198 205 195 192 210 217 223 222 195 218 234 250 264 248 223 251 254 242 258 260 250 253 260 265 263 253 241 243
201 200 184 180 197 210 224 217 182 169 183 188 183 181 201 211 212 183 194 203 209 202 204 305 181 185 196 199 214 230 219 224 233 223 224 219 224 326 210 196 203 207 206 191 175 163 97 233 205 209 215 222 239 239 177 147 181 203 203 198 201 204 196 194 214 223 214 182 235 236 228 243 260 252 228 233 241 238 258 252 248 255 263 262 256 243 230 230
221 230 191 184 189 206 218 215 196 179 176 184 188 162 185 202 205 187 196 213 210 188 181 234 213 210 210 201 210 228 222 224 227 223 232 226 212 326 232 211 221 216 206 187 181 168 149 220 213 218 224 228 239 235 195 177 200 205 199 202 201 197 195 202 217 224 214 199 239 247 231 228 249 253 237 214 213 221 231 237 245 251 245 243 243 235 228 230
223 263 228 194 198 216 211 207 195 187 183 171 171 169 169 189 201 198 186 178 198 192 189 213 224 219 218 213 212 220 218 221 224 222 227 229 210 160 188 237 234 216 198 183 200 185 166 217 217 217 227 234 240 239 215 199 218 222 208 207 202 197 201 208 217 224 220 220 238 247 245 242 247 249 232 208 213 224 230 239 247 242 235 237 237 234 237 245
218 239 235 202 210 218 200 190 171 178 192 178 182 198 183 190 199 197 187 172 167 182 193 217 233 222 213 222 221 226 228 221 225 226 215 219 220 181 190 214 185 179 187 187 236 218 184 223 226 208 225 243 243 245 233 208 221 232 226 220 214 211 211 212 219 224 221 228 238 242 251 257 251 210 183 202 213 223 232 242 245 243 240 240 238 240 249 260
228 229 230 224 219 183 171 167 155 170 193 183 191 195 188 209 203 174 182 203 196 184 183 211 232 230 217 227 225 233 238 233 239 245 227 216 229 216 211 200 141 123 183 195 190 154 185 229 255 169 224 241 242 244 239 216 214 242 246 238 226 221 219 215 219 222 216 223 234 239 250 257 245 151 170 196 201 212 229 237 243 245 244 243 245 248 255 263
233 232 232 238 238 187 171 155 162 184 193 185 196 195 189 210 192 158 169 225 211 213 207 205 223 228 221 232 231 235 243 247 254 259 258 258 250 241 238 219 180 159 168 184 184 157 174 207 222 201 222 240 242 242 233 192 175 239 239 236 231 226 219 217 224 228 221 217 223 225 234 244 239 159 180 196 189 201 221 233 240 243 243 244 246 250 255 260